�������l�o���
Date,Time,MP-1(��Sv/h),MP-2(��Sv/h),MP-3(��Sv/h),MP-4(��Sv/h),MP-5(��Sv/h),MP-6(��Sv/h),MP-7(��Sv/h),MP-8(��Sv/h),����,����(m/s),���J
2014/03/26,00:00,2.4,4.4,5.0,4.5,4.7,2.0,2.5,2.8,��,12.4,��
2014/03/26,00:10,2.4,4.4,5.0,4.4,4.7,2.0,2.5,2.8,��,12.3,��
2014/03/26,00:20,2.4,4.4,5.0,4.5,4.7,2.0,2.5,2.8,��,11.0,��
2014/03/26,00:30,2.4,4.4,5.0,4.5,4.7,2.0,2.5,2.8,��,10.4,��
2014/03/26,00:40,2.4,4.4,5.0,4.5,4.7,2.0,2.5,2.8,��,11.0,��
2014/03/26,00:50,2.4,4.4,5.0,4.5,4.7,2.1,2.5,2.8,��,10.4,��
2014/03/26,01:00,2.4,4.4,5.0,4.5,4.7,2.0,2.5,2.8,��,8.5,��
2014/03/26,01:10,2.4,4.4,5.0,4.5,4.7,2.0,2.5,2.8,��,8.3,��
2014/03/26,01:20,2.4,4.4,5.0,4.5,4.7,2.0,2.5,2.8,��,6.0,��
2014/03/26,01:30,2.4,4.4,5.0,4.5,4.7,2.0,2.5,2.8,���쐼,4.7,��
2014/03/26,01:40,2.4,4.4,5.0,4.5,4.7,2.0,2.5,2.8,��,4.6,��
2014/03/26,01:50,2.4,4.4,5.0,4.5,4.7,2.0,2.5,2.8,��,4.2,��
2014/03/26,02:00,2.4,4.4,5.0,4.5,4.7,2.0,2.5,2.8,��,6.4,��
2014/03/26,02:10,2.4,4.4,5.0,4.5,4.7,2.1,2.5,2.8,���쐼,6.0,��
2014/03/26,02:20,2.4,4.4,5.0,4.5,4.7,2.0,2.5,2.8,��,10.1,��
2014/03/26,02:30,2.4,4.4,5.0,4.5,4.7,2.0,2.5,2.8,��,8.9,��
2014/03/26,02:40,2.4,4.4,5.0,4.5,4.7,2.0,2.5,2.8,��,11.8,��
2014/03/26,02:50,2.4,4.4,5.0,4.5,4.7,2.0,2.5,2.8,��,9.9,��
2014/03/26,03:00,2.4,4.4,5.0,4.5,4.7,2.0,2.5,2.8,��,9.9,��
2014/03/26,03:10,2.4,4.4,5.0,4.5,4.7,2.0,2.5,2.8,��,9.3,��
2014/03/26,03:20,2.4,4.4,5.0,4.5,4.7,2.1,2.5,2.8,���쐼,9.3,��
2014/03/26,03:30,2.4,4.4,5.0,4.5,4.7,2.1,2.5,2.8,��,10.1,��
2014/03/26,03:40,2.4,4.4,5.0,4.5,4.7,2.1,2.5,2.8,��,10.5,��
2014/03/26,03:50,2.4,4.4,5.0,4.5,4.7,2.1,2.5,2.8,��,10.7,��
2014/03/26,04:00,2.4,4.4,5.0,4.5,4.7,2.1,2.5,2.8,��,12.6,��
2014/03/26,04:10,2.4,4.4,5.0,4.5,4.7,2.1,2.5,2.8,��,13.4,��
2014/03/26,04:20,2.4,4.4,5.0,4.5,4.7,2.1,2.5,2.8,��,14.1,��
2014/03/26,04:30,2.4,4.4,5.0,4.5,4.7,2.1,2.5,2.8,��,12.4,��
2014/03/26,04:40,2.4,4.4,5.0,4.5,4.7,2.1,2.5,2.8,��,12.9,��
2014/03/26,04:50,2.4,4.4,5.0,4.5,4.7,2.1,2.5,2.8,��,10.2,��
2014/03/26,05:00,2.4,4.4,5.0,4.5,4.7,2.1,2.5,2.8,��,8.8,��
2014/03/26,05:10,2.4,4.4,5.0,4.5,4.7,2.1,2.5,2.8,���k��,9.9,��
2014/03/26,05:20,2.4,4.4,5.0,4.5,4.7,2.0,2.5,2.8,���k��,10.4,��
2014/03/26,05:30,2.4,4.4,5.0,4.5,4.7,2.1,2.5,2.8,��,8.5,��
2014/03/26,05:40,2.4,4.4,5.0,4.5,4.7,2.0,2.5,2.8,���k��,7.1,��
2014/03/26,05:50,2.4,4.4,5.0,4.5,4.7,2.0,2.5,2.8,���k��,6.9,��
2014/03/26,06:00,2.4,4.4,5.0,4.5,4.7,2.0,2.5,2.8,��,4.9,��
2014/03/26,06:10,2.4,4.4,5.0,4.5,4.7,2.1,2.5,2.8,���k��,4.3,��
2014/03/26,06:20,2.4,4.4,5.0,4.5,4.7,2.0,2.5,2.8,���k��,3.6,��
2014/03/26,06:30,2.4,4.4,5.0,4.5,4.7,2.0,2.5,2.8,-,CALM,��
2014/03/26,06:40,2.4,4.4,5.0,4.5,4.7,2.0,2.5,2.8,�k�k��,1.1,��
2014/03/26,06:50,2.4,4.4,5.0,4.5,4.7,2.0,2.5,2.8,-,CALM,��
2014/03/26,07:00,2.4,4.4,5.0,4.5,4.7,2.0,2.5,2.8,���쐼,0.7,��
2014/03/26,07:10,2.4,4.4,5.0,4.5,4.7,2.0,2.5,2.8,�k��,1.4,��
2014/03/26,07:20,2.4,4.4,5.0,4.5,4.7,2.0,2.5,2.8,-,CALM,��
2014/03/26,07:30,2.4,4.4,5.0,4.5,4.7,2.1,2.5,2.8,��쐼,1.7,��
2014/03/26,07:40,2.4,4.4,5.0,4.5,4.7,2.1,2.5,2.8,���쐼,1.8,��
2014/03/26,07:50,2.4,4.4,5.0,4.5,4.7,2.0,2.5,2.8,��,0.9,��
2014/03/26,08:00,2.4,4.4,5.0,4.5,4.7,2.0,2.5,2.8,-,CALM,��
2014/03/26,08:10,2.4,4.4,5.0,-,4.7,2.0,2.5,2.8,�쓌,0.6,��
2014/03/26,08:20,2.4,4.4,5.0,-,4.7,2.0,2.5,2.8,��,1.7,��
2014/03/26,08:30,2.4,4.4,5.0,-,4.7,2.0,2.5,2.8,��,1.5,��
2014/03/26,08:40,2.4,4.4,5.0,-,4.7,2.1,2.5,2.8,�쐼,1.4,��
2014/03/26,08:50,2.4,4.4,5.0,-,4.7,2.0,2.5,2.8,���k��,0.8,��
2014/03/26,09:00,2.4,4.4,5.0,-,4.7,2.0,2.5,2.8,�k�k��,1.3,��
2014/03/26,09:10,2.4,4.4,5.0,-,4.7,2.0,2.5,2.8,�k��,2.6,��
2014/03/26,09:20,2.4,4.4,5.0,-,4.7,2.0,2.5,2.8,�k��,2.0,��
2014/03/26,09:30,2.4,4.4,5.0,-,4.7,2.0,2.5,2.8,�k��,1.4,��
2014/03/26,09:40,2.4,4.4,5.0,-,4.7,2.0,2.5,2.8,�k��,1.6,��
2014/03/26,09:50,2.4,4.4,5.0,-,4.7,2.0,2.5,2.8,���k��,1.4,��
2014/03/26,10:00,2.4,4.4,5.0,-,4.7,2.0,2.5,2.8,���쓌,1.4,��
2014/03/26,10:10,2.4,4.4,5.0,-,4.7,2.0,2.5,2.8,�쓌,2.1,��
2014/03/26,10:20,2.4,4.4,5.0,-,4.7,2.0,2.5,2.8,��쓌,2.5,��
2014/03/26,10:30,2.4,4.4,5.0,-,4.7,2.0,2.5,2.8,��쓌,3.3,��
2014/03/26,10:40,2.4,4.4,5.0,-,4.7,2.0,2.5,2.8,��쓌,3.3,��
2014/03/26,10:50,2.4,4.4,5.0,-,4.7,2.1,2.5,2.8,��,4.1,��
2014/03/26,11:00,2.4,4.4,5.0,-,4.7,2.1,2.5,2.8,��쓌,4.9,��
2014/03/26,11:10,2.4,4.4,5.0,-,4.7,2.1,2.5,2.8,��쓌,4.3,��
2014/03/26,11:20,2.4,4.4,5.0,-,4.7,2.1,2.5,2.8,��쓌,4.3,��
2014/03/26,11:30,2.4,4.4,5.0,-,4.7,2.0,2.5,2.8,��쓌,6.4,��
2014/03/26,11:40,2.4,4.4,5.0,-,4.7,2.1,2.5,2.8,��쓌,6.0,��
2014/03/26,11:50,2.4,4.4,5.0,-,4.7,2.1,2.5,2.8,��쓌,7.1,��
2014/03/26,12:00,2.4,4.4,5.0,-,4.7,2.1,2.5,2.8,��,6.1,��
2014/03/26,12:10,2.4,4.4,5.0,-,4.7,2.1,2.5,2.8,��,5.6,��
2014/03/26,12:20,2.4,4.4,5.0,-,4.7,2.1,2.5,2.8,��,5.4,��
2014/03/26,12:30,2.4,4.4,5.0,-,4.7,2.1,2.5,2.8,��,5.3,��
2014/03/26,12:40,2.4,4.4,5.0,-,4.7,2.1,2.5,2.8,��,6.2,��
2014/03/26,12:50,2.4,4.4,5.0,-,4.7,2.1,2.5,2.8,��,6.1,��
2014/03/26,13:00,2.4,4.4,5.0,-,4.7,2.0,2.5,2.8,��,6.5,��
2014/03/26,13:10,2.4,4.4,5.0,-,4.7,2.1,2.5,2.8,��,6.6,��
2014/03/26,13:20,2.4,4.4,5.0,-,4.7,2.0,2.5,2.8,��,6.0,��
2014/03/26,13:30,2.4,4.4,5.0,-,4.7,2.1,2.5,2.8,��,6.7,��
2014/03/26,13:40,2.4,4.4,5.0,-,4.7,2.0,2.5,2.8,��,7.2,��
2014/03/26,13:50,2.4,4.4,5.0,-,4.7,2.1,2.5,2.8,��,7.8,��
2014/03/26,14:00,2.4,4.4,5.0,-,4.7,2.1,2.5,2.8,��,8.0,��
2014/03/26,14:10,2.4,4.4,5.0,-,4.7,2.1,2.5,2.8,��,9.3,��
2014/03/26,14:20,2.4,4.4,5.0,-,4.7,2.1,2.5,2.8,��,8.9,��
2014/03/26,14:30,2.4,4.4,5.0,-,4.7,2.1,2.5,2.8,��,8.9,��
2014/03/26,14:40,2.4,4.4,5.0,-,4.7,2.0,2.5,2.8,��,8.5,��
2014/03/26,14:50,2.4,4.4,5.0,-,4.7,2.0,2.5,2.8,��,8.5,��
2014/03/26,15:00,2.4,4.4,5.0,4.5,4.7,2.1,2.5,2.8,��,9.6,��
2014/03/26,15:10,2.4,4.4,5.0,4.5,4.7,2.1,2.5,2.8,��,8.2,��
2014/03/26,15:20,2.5,4.4,5.0,4.5,4.7,2.1,2.5,2.8,��,8.8,��
2014/03/26,15:30,2.5,4.4,5.0,4.5,4.7,2.1,2.5,2.8,��,7.1,�L
2014/03/26,15:40,2.4,4.4,5.0,4.5,4.7,2.1,2.5,2.8,��,6.7,�L
2014/03/26,15:50,2.4,4.4,5.0,4.5,4.7,2.1,2.5,2.8,��,5.6,�L
2014/03/26,16:00,2.4,4.4,5.0,4.5,4.7,2.0,2.5,2.8,��,6.2,�L
2014/03/26,16:10,2.4,4.4,5.0,4.5,4.7,2.0,2.5,2.8,��,5.8,�L
2014/03/26,16:20,2.4,4.4,5.0,4.5,4.7,2.1,2.5,2.8,��,4.8,�L
2014/03/26,16:30,2.4,4.4,5.0,4.5,4.7,2.1,2.5,2.8,��,3.9,�L
2014/03/26,16:40,2.4,4.4,5.0,4.5,4.7,2.0,2.5,2.8,��쓌,2.9,�L
2014/03/26,16:50,2.4,4.4,5.0,4.5,4.7,2.0,2.5,2.8,��쓌,2.3,�L
2014/03/26,17:00,2.4,4.4,5.0,4.5,4.7,2.0,2.5,2.8,�쓌,2.4,�L
2014/03/26,17:10,2.4,4.4,5.0,4.5,4.7,2.0,2.5,2.8,�쓌,2.0,��
2014/03/26,17:20,2.4,4.4,5.0,4.5,4.7,2.0,2.5,2.8,���쓌,1.4,��
2014/03/26,17:30,2.4,4.4,5.0,4.5,4.7,2.0,2.5,2.8,��,1.6,��
2014/03/26,17:40,2.4,4.4,5.0,4.5,4.7,2.0,2.5,2.8,-,CALM,��
2014/03/26,17:50,2.4,4.4,5.0,4.5,4.7,2.0,2.5,2.8,��,0.9,��
2014/03/26,18:00,2.4,4.4,5.0,4.5,4.7,2.0,2.5,2.8,-,CALM,��
2014/03/26,18:10,2.4,4.4,5.0,4.5,4.7,2.0,2.5,2.8,��,0.7,�L
2014/03/26,18:20,2.4,4.4,5.0,4.5,4.7,2.1,2.5,2.8,�k��,0.7,�L
2014/03/26,18:30,2.4,4.4,5.0,4.5,4.7,2.0,2.5,2.8,�k,0.8,�L
2014/03/26,18:40,2.4,4.4,5.0,4.5,4.7,2.0,2.5,2.8,�k,0.8,�L
2014/03/26,18:50,2.4,4.4,5.0,4.5,4.7,2.0,2.5,2.8,�k��,1.2,�L
2014/03/26,19:00,2.4,4.4,5.0,4.5,4.7,2.0,2.5,2.8,�k��,2.0,�L
2014/03/26,19:10,2.4,4.4,5.0,4.5,4.7,2.0,2.5,2.8,�k��,2.6,�L
2014/03/26,19:20,2.4,4.4,5.0,4.5,4.7,2.0,2.5,2.8,�k�k��,2.3,�L
2014/03/26,19:30,2.4,4.4,4.9,4.4,4.7,2.0,2.5,2.8,�k�k��,2.8,�L
2014/03/26,19:40,2.4,4.4,4.9,4.4,4.7,2.0,2.5,2.8,�k�k��,4.0,�L
2014/03/26,19:50,2.4,4.4,4.9,4.4,4.7,2.0,2.5,2.8,�k�k��,4.6,�L
2014/03/26,20:00,2.4,4.4,4.9,4.4,4.7,2.0,2.5,2.7,�k�k��,5.4,�L
2014/03/26,20:10,2.4,4.4,4.9,4.4,4.6,2.0,2.5,2.8,�k,5.0,�L
2014/03/26,20:20,2.4,4.4,4.9,4.5,4.6,2.0,2.5,2.8,�k,5.3,�L
2014/03/26,20:30,2.4,4.4,4.9,4.4,4.7,2.0,2.5,2.8,�k,6.0,�L
2014/03/26,20:40,2.4,4.4,4.9,4.4,4.6,2.0,2.5,2.7,�k�k��,6.1,�L
2014/03/26,20:50,2.4,4.4,4.9,4.4,4.6,2.0,2.5,2.8,�k,6.7,�L
2014/03/26,21:00,2.4,4.4,4.9,4.4,4.6,2.0,2.5,2.8,�k�k��,6.7,�L
2014/03/26,21:10,2.4,4.4,4.9,4.4,4.6,2.0,2.5,2.8,�k�k��,6.6,�L
2014/03/26,21:20,2.4,4.4,4.9,4.4,4.6,2.0,2.5,2.8,�k�k��,5.4,�L
2014/03/26,21:30,2.4,4.4,4.9,4.4,4.6,2.0,2.5,2.7,�k�k��,5.2,�L
2014/03/26,21:40,2.4,4.4,4.9,4.4,4.6,2.0,2.5,2.7,�k�k��,5.6,�L
2014/03/26,21:50,2.4,4.3,4.9,4.4,4.6,2.0,2.5,2.7,�k�k��,5.7,�L
2014/03/26,22:00,2.4,4.3,4.9,4.4,4.6,2.0,2.5,2.7,�k�k��,5.6,�L
2014/03/26,22:10,2.4,4.3,4.9,4.4,4.6,2.0,2.5,2.7,�k�k��,5.7,�L
2014/03/26,22:20,2.4,4.3,4.9,4.4,4.6,2.0,2.5,2.7,�k�k��,5.1,�L
2014/03/26,22:30,2.4,4.3,4.8,4.4,4.6,2.0,2.5,2.7,�k�k��,5.2,�L
2014/03/26,22:40,2.4,4.3,4.8,4.4,4.6,2.0,2.5,2.7,�k,6.0,�L
2014/03/26,22:50,2.4,4.3,4.8,4.4,4.6,2.0,2.5,2.7,�k,5.6,�L
2014/03/26,23:00,2.4,4.3,4.8,4.4,4.6,2.0,2.5,2.7,�k,6.0,�L
2014/03/26,23:10,2.4,4.3,4.8,4.4,4.6,2.0,2.5,2.7,�k,5.8,�L
2014/03/26,23:20,2.4,4.3,4.8,4.4,4.6,2.0,2.5,2.7,�k�k��,6.1,�L
2014/03/26,23:30,2.4,4.3,4.8,4.4,4.5,2.0,2.5,2.7,�k,5.0,�L
2014/03/26,23:40,2.4,4.3,4.8,4.4,4.5,2.0,2.5,2.7,�k�k��,4.7,�L
2014/03/26,23:50,2.4,4.3,4.8,4.4,4.5,2.0,2.5,2.7,�k�k��,4.9,�L
